Location: Namasale
(1.5000°N, 32.6167°E)
Time: 09:10:26
(UTC+00:00)

Courier 1B - Pass Details

Date: 26 April 2021
Orbit: 962 x 1209 km, 28.3° (Epoch: 15 May)

Event Time Altitude Azimuth Distance (km) Brightness Sun altitude
Rises 02:29:20 0° 223° (SW) 4,107 - -18.6°
Reaches altitude 10° 02:32:31 10° 215° (SW) 3,144 - -17.8°
Exits shadow 02:33:14 13° 212° (SSW) 2,936 9.6 -17.6°
Maximum altitude 02:39:32 35° 152° (SSE) 1,826 9.0 -16.1°
Drops below altitude 10° 02:46:22 10° 88° (E) 3,070 11.4 -14.4°
Sets 02:49:25 0° 80° (E) 3,999 12.7 -13.7°
